Location: Mount Cross
(36.6390°N, 79.4878°W)
Time: 00:46:35
(UTC+00:00)

SR - Pass Details

Date: 06 April 2023
Orbit: 580 x 867 km, 66.7° (Epoch: 08 June)

Event Time Altitude Azimuth Distance (km) Brightness Sun altitude
Rises 04:37:47 0° 217° (SW) 3,004 - -45.9°
Reaches altitude 10° 04:40:12 10° 222° (SW) 2,050 - -46.0°
Maximum altitude 04:44:41 52° 300° (WNW) 768 - -46.2°
Drops below altitude 10° 04:48:56 10° 17° (NNE) 1,938 - -46.4°
Sets 04:51:10 0° 23° (NNE) 2,824 - -46.5°
